sat.trackr.live / text

‹ back to catalog

STARLINK-37014

NORAD 68216 · 2026-053K

PAYLOAD ACTIVE UNKNOWN

§ Identity

Operator
Country
US
Launch date
2026-03-17
Launch site
AFWTR
Launch vehicle
Mass (kg)
RCS (m²)

Purposes: comms

External: N2YO · Heavens-Above · Gunter

§ Orbital elements

Epoch: 2026-05-25T03:18:47.463840Z

Period
93.91 min
Inclination
97.2869°
Eccentricity
0.0001835
Mean motion
15.33448685 rev/d
Perigee alt
464.3 km
Apogee alt
466.8 km
Semi-major
6,843.7 km
B*
6.1435e-4
RAAN
20.5825°
Arg perigee
98.4097°
Mean anomaly
261.7354°
Rev number
1,193

§ Raw data

STARLINK-370141 68216U 26053K   26145.13804935  .00019813  00000+0  61435-3 0  99932 68216  97.2869  20.5825 0001835  98.4097 261.7354 15.33448685 11931

JSON: /api/v1/satellites/68216 · /tle

For live sub-satellite position, see the globe view (requires WebGL).

§ Visibility from observer

Set your observer location to see the next 7 days of passes ≥ 10°. The values pass through the URL so the page stays shareable.

No JS? Fill the form by hand. The geolocation button needs JavaScript.